When you browse on this site, cookies collect data to enhance your experience and personalize the content and advertising you see.
Visit our Privacy Policy to learn more. By continuing to use the site, you agree to this use of cookies and data.
  • en France
  • Liste des pays
  • À 7 jours
  • Température de l'eau
  • Carte satellitaire
  • Carte météo
  • Widgets météo
  • user-avatar
    Se connecter

    Météo par heure à Wanning

    Ce jour, 19 Juillet, Vendredi

    Heure Température Précipitation Vent Pression Humidité
    00:00 +30°C° 0 mm 3 m/s 750 mmHg 85%
    01:00 +29°C° 0 mm 3 m/s 750 mmHg 83%
    02:00 +29°C° 0 mm 4 m/s 750 mmHg 84%
    03:00 +29°C° 0 mm 4 m/s 750 mmHg 86%
    04:00 +28°C° 0 mm 4 m/s 750 mmHg 87%
    05:00 +29°C° 0 mm 4 m/s 750 mmHg 82%
    06:00 +30°C° 0 mm 4 m/s 751 mmHg 77%
    07:00 +32°C° 0 mm 4 m/s 751 mmHg 72%
    08:00 +35°C° 0 mm 4 m/s 751 mmHg 64%
    09:00 +37°C° 0 mm 4 m/s 751 mmHg 56%
    10:00 +40°C° 0 mm 4 m/s 752 mmHg 48%
    11:00 +40°C° 0 mm 5 m/s 752 mmHg 51%
    12:00 +39°C° 0 mm 6 m/s 751 mmHg 53%
    13:00 +39°C° 0 mm 7 m/s 751 mmHg 55%
    14:00 +39°C° 0 mm 6 m/s 751 mmHg 57%
    15:00 +38°C° 0 mm 6 m/s 750 mmHg 59%
    16:00 +36°C° 0 mm 6 m/s 750 mmHg 62%
    17:00 +35°C° 0 mm 5 m/s 750 mmHg 67%
    18:00 +33°C° 0 mm 5 m/s 750 mmHg 72%
    19:00 +32°C° 0 mm 4 m/s 751 mmHg 77%
    20:00 +30°C° 0 mm 4 m/s 751 mmHg 80%
    21:00 +30°C° 0 mm 3 m/s 752 mmHg 82%
    22:00 +29°C° 0 mm 3 m/s 752 mmHg 85%
    23:00 +29°C° 0 mm 3 m/s 752 mmHg 86%

    Demain, 20 Juillet, Samedi

    Heure Température Précipitation Vent Pression Humidité
    00:00 +29°C° 0 mm 4 m/s 752 mmHg 88%
    01:00 +29°C° 0 mm 4 m/s 751 mmHg 89%
    02:00 +29°C° 0 mm 4 m/s 751 mmHg 91%
    03:00 +29°C° 0 mm 4 m/s 751 mmHg 92%
    04:00 +29°C° 0 mm 4 m/s 751 mmHg 93%
    05:00 +30°C° 0 mm 4 m/s 752 mmHg 89%
    06:00 +32°C° 0 mm 4 m/s 752 mmHg 84%
    07:00 +33°C° 0 mm 4 m/s 752 mmHg 80%
    08:00 +34°C° 0 mm 4 m/s 753 mmHg 73%
    09:00 +36°C° 0 mm 4 m/s 753 mmHg 65%
    10:00 +37°C° 0 mm 4 m/s 753 mmHg 58%
    11:00 +37°C° 0.1 mm 4 m/s 753 mmHg 59%
    12:00 +37°C° 0.1 mm 5 m/s 752 mmHg 61%
    13:00 +37°C° 0.1 mm 5 m/s 752 mmHg 62%
    14:00 +36°C° 0.4 mm 5 m/s 751 mmHg 67%
    15:00 +35°C° 0.4 mm 5 m/s 751 mmHg 72%
    16:00 +34°C° 0.4 mm 4 m/s 751 mmHg 76%
    17:00 +33°C° 0.2 mm 4 m/s 751 mmHg 82%
    18:00 +31°C° 0.2 mm 3 m/s 751 mmHg 87%
    19:00 +30°C° 0.2 mm 3 m/s 751 mmHg 92%
    20:00 +30°C° 0 mm 3 m/s 752 mmHg 93%
    21:00 +30°C° 0 mm 3 m/s 752 mmHg 94%
    22:00 +30°C° 0 mm 4 m/s 753 mmHg 95%
    23:00 +30°C° 0 mm 4 m/s 752 mmHg 95%

    Après-demain, 21 Juillet, Dimanche

    Heure Température Précipitation Vent Pression Humidité
    00:00 +29°C° 0 mm 4 m/s 752 mmHg 95%
    01:00 +29°C° 0 mm 4 m/s 752 mmHg 95%
    02:00 +29°C° 0 mm 4 m/s 752 mmHg 95%
    03:00 +29°C° 0 mm 4 m/s 752 mmHg 95%
    04:00 +29°C° 0 mm 4 m/s 751 mmHg 95%
    05:00 +30°C° 0.1 mm 4 m/s 752 mmHg 91%
    06:00 +30°C° 0.1 mm 4 m/s 752 mmHg 88%
    07:00 +32°C° 0.1 mm 4 m/s 753 mmHg 85%
    08:00 +34°C° 0.2 mm 4 m/s 753 mmHg 77%
    09:00 +35°C° 0.2 mm 4 m/s 753 mmHg 70%
    10:00 +36°C° 0.2 mm 4 m/s 753 mmHg 62%
    11:00 +36°C° 0.3 mm 4 m/s 753 mmHg 62%
    12:00 +36°C° 0.3 mm 5 m/s 752 mmHg 62%
    13:00 +36°C° 0.3 mm 5 m/s 752 mmHg 62%
    14:00 +36°C° 0.3 mm 5 m/s 751 mmHg 65%
    15:00 +35°C° 0.3 mm 4 m/s 751 mmHg 68%
    16:00 +35°C° 0.3 mm 4 m/s 750 mmHg 71%
    17:00 +34°C° 0.3 mm 4 m/s 750 mmHg 77%
    18:00 +32°C° 0.3 mm 4 m/s 751 mmHg 83%
    19:00 +30°C° 0.3 mm 4 m/s 751 mmHg 89%
    20:00 +30°C° 0.3 mm 4 m/s 752 mmHg 90%
    21:00 +30°C° 0.3 mm 4 m/s 752 mmHg 92%
    22:00 +30°C° 0.3 mm 4 m/s 753 mmHg 93%
    23:00 +29°C° 0.4 mm 3 m/s 752 mmHg 93%

    22 Juillet, Lundi

    Heure Température Précipitation Vent Pression Humidité
    00:00 +29°C° 0.4 mm 3 m/s 752 mmHg 93%
    01:00 +29°C° 0.4 mm 3 m/s 752 mmHg 93%
    02:00 +29°C° 0.1 mm 3 m/s 751 mmHg 92%
    03:00 +29°C° 0.1 mm 3 m/s 751 mmHg 92%
    04:00 +29°C° 0.1 mm 3 m/s 751 mmHg 91%
    05:00 +29°C° 0.2 mm 3 m/s 751 mmHg 88%
    06:00 +30°C° 0.2 mm 3 m/s 752 mmHg 85%
    07:00 +31°C° 0.2 mm 3 m/s 752 mmHg 81%
    08:00 +33°C° 0.2 mm 4 m/s 752 mmHg 73%
    09:00 +35°C° 0.2 mm 6 m/s 752 mmHg 65%
    10:00 +36°C° 0.2 mm 7 m/s 752 mmHg 57%
    11:00 +36°C° 0.1 mm 7 m/s 752 mmHg 59%
    12:00 +36°C° 0.1 mm 7 m/s 752 mmHg 61%
    13:00 +35°C° 0.1 mm 7 m/s 751 mmHg 62%
    14:00 +35°C° 0.1 mm 7 m/s 751 mmHg 63%
    15:00 +35°C° 0.1 mm 6 m/s 751 mmHg 64%
    16:00 +35°C° 0.1 mm 6 m/s 750 mmHg 65%
    17:00 +33°C° 0 mm 5 m/s 750 mmHg 69%
    18:00 +32°C° 0 mm 5 m/s 751 mmHg 74%
    19:00 +30°C° 0 mm 5 m/s 751 mmHg 79%
    20:00 +30°C° 0 mm 5 m/s 752 mmHg 80%
    21:00 +29°C° 0 mm 4 m/s 752 mmHg 81%
    22:00 +29°C° 0 mm 4 m/s 753 mmHg 83%
    23:00 +29°C° 0 mm 4 m/s 752 mmHg 83%

    23 Juillet, Mardi

    Heure Température Précipitation Vent Pression Humidité
    00:00 +29°C° 0 mm 4 m/s 752 mmHg 84%
    01:00 +29°C° 0 mm 4 m/s 752 mmHg 85%
    02:00 +29°C° 0 mm 4 m/s 751 mmHg 85%
    03:00 +29°C° 0 mm 4 m/s 751 mmHg 85%
    04:00 +29°C° 0 mm 3 m/s 751 mmHg 85%
    05:00 +29°C° 0.1 mm 4 m/s 751 mmHg 82%
    06:00 +30°C° 0.1 mm 4 m/s 752 mmHg 78%
    07:00 +32°C° 0.1 mm 4 m/s 752 mmHg 74%
    08:00 +33°C° 0 mm 5 m/s 752 mmHg 70%
    09:00 +34°C° 0 mm 6 m/s 752 mmHg 66%
    10:00 +34°C° 0 mm 6 m/s 752 mmHg 62%
    11:00 +34°C° 0 mm 6 m/s 752 mmHg 63%
    12:00 +34°C° 0 mm 6 m/s 752 mmHg 64%
    13:00 +33°C° 0 mm 6 m/s 751 mmHg 66%
    14:00 +34°C° 0 mm 6 m/s 751 mmHg 63%
    15:00 +35°C° 0 mm 6 m/s 750 mmHg 60%
    16:00 +36°C° 0 mm 6 m/s 750 mmHg 57%
    17:00 +34°C° 0 mm 6 m/s 750 mmHg 64%
    18:00 +32°C° 0 mm 6 m/s 751 mmHg 71%
    19:00 +30°C° 0 mm 6 m/s 751 mmHg 78%
    20:00 +29°C° 0 mm 5 m/s 751 mmHg 80%
    21:00 +29°C° 0 mm 5 m/s 752 mmHg 82%
    22:00 +28°C° 0 mm 5 m/s 752 mmHg 83%
    23:00 +28°C° 0 mm 5 m/s 752 mmHg 83%

    24 Juillet, Mercredi

    Heure Température Précipitation Vent Pression Humidité
    00:00 +29°C° 0 mm 4 m/s 752 mmHg 82%
    01:00 +29°C° 0 mm 4 m/s 751 mmHg 82%
    02:00 +28°C° 0 mm 4 m/s 751 mmHg 82%
    03:00 +28°C° 0 mm 4 m/s 751 mmHg 83%
    04:00 +28°C° 0 mm 5 m/s 751 mmHg 84%
    05:00 +29°C° 0 mm 5 m/s 752 mmHg 79%
    06:00 +30°C° 0 mm 5 m/s 752 mmHg 73%
    07:00 +32°C° 0 mm 6 m/s 752 mmHg 68%
    08:00 +33°C° 0 mm 6 m/s 752 mmHg 63%
    09:00 +34°C° 0 mm 5 m/s 753 mmHg 59%
    10:00 +36°C° 0 mm 5 m/s 753 mmHg 55%
    11:00 +36°C° 0.1 mm 6 m/s 752 mmHg 56%
    12:00 +36°C° 0.1 mm 6 m/s 752 mmHg 56%
    13:00 +36°C° 0.1 mm 6 m/s 752 mmHg 57%
    14:00 +36°C° 0.1 mm 6 m/s 752 mmHg 58%
    15:00 +35°C° 0.1 mm 6 m/s 751 mmHg 58%
    16:00 +35°C° 0.1 mm 6 m/s 751 mmHg 59%
    17:00 +34°C° 0 mm 6 m/s 751 mmHg 64%
    18:00 +32°C° 0 mm 5 m/s 752 mmHg 70%
    19:00 +30°C° 0 mm 4 m/s 752 mmHg 75%
    20:00 +30°C° 0 mm 4 m/s 753 mmHg 78%
    21:00 +29°C° 0 mm 4 m/s 753 mmHg 80%
    22:00 +29°C° 0 mm 4 m/s 754 mmHg 83%
    23:00 +29°C° 0.1 mm 4 m/s 754 mmHg 84%
    Voir plus